Location: Unspecified
(56.5167°N, 0.0000°E)
Time: 16:07:50
(UTC+02:00)

Cosmos 1674 - Visible Passes

Search period start: 04 October 2022 00:00
Search period end: 14 October 2022 00:00
Orbit: 486 x 506 km, 82.5° (Epoch: 03 October)

Date Brightness Start Highest point End Pass type
(mag) Time Alt. Az. Time Alt. Az. Time Alt. Az.
04 Oct 6.0 20:50:05 10° NW 20:52:22 16° W 20:54:37 10° WSW visible
05 Oct 5.8 20:28:37 10° NW 20:31:25 20° W 20:34:12 10° SW visible
06 Oct 6.4 07:14:28 10° ESE 07:16:05 12° E 07:17:41 10° ENE visible
06 Oct 5.3 20:07:17 10° NNW 20:10:27 26° W 20:13:34 10° SSW visible
10 Oct 5.1 07:23:14 10° SSE 07:26:30 28° E 07:29:47 10° NNE visible
10 Oct 6.5 20:19:40 10° WNW 20:20:49 11° W 20:21:56 10° W visible
11 Oct 5.6 07:02:31 10° SE 07:05:27 22° E 07:08:24 10° NE visible
11 Oct 6.1 19:57:42 10° NW 19:59:49 15° W 20:01:55 10° WSW visible
12 Oct 6.0 06:41:57 10° SE 06:44:26 17° E 06:46:54 10° NE visible
13 Oct 6.2 06:21:38 10° ESE 06:23:24 13° E 06:25:11 10° NE visible
